TimePST,TemperatureF,Dew PointF,Humidity,Sea Level PressureIn,VisibilityMPH,Wind Direction,Wind SpeedMPH,Gust SpeedMPH,PrecipitationIn,Events,Conditions,WindDirDegrees,DateUTC
12:53 AM,18.0,12.0,78,30.30,9.0,Calm,Calm,-,N/A,,Clear,0,2013-01-22 08:53:00
1:53 AM,17.1,10.9,77,30.29,9.0,South,3.5,-,N/A,,Clear,180,2013-01-22 09:53:00
2:53 AM,16.0,10.0,77,30.28,8.0,SSW,5.8,-,N/A,,Clear,200,2013-01-22 10:53:00
3:53 AM,15.1,10.0,80,30.29,9.0,Calm,Calm,-,N/A,,Clear,0,2013-01-22 11:53:00
4:53 AM,12.9,8.1,81,30.32,9.0,SSW,4.6,-,N/A,,Clear,200,2013-01-22 12:53:00
5:53 AM,12.9,8.1,81,30.35,9.0,SSW,3.5,-,N/A,,Clear,200,2013-01-22 13:53:00
6:53 AM,10.9,6.1,81,30.37,10.0,Calm,Calm,-,N/A,,Clear,0,2013-01-22 14:53:00
7:53 AM,10.9,5.0,77,30.39,9.0,South,3.5,-,N/A,,Clear,190,2013-01-22 15:53:00
8:53 AM,17.1,10.0,74,30.36,9.0,South,4.6,-,N/A,,Clear,180,2013-01-22 16:53:00
9:53 AM,27.0,15.1,61,30.34,10.0,Calm,Calm,-,N/A,,Clear,0,2013-01-22 17:53:00
10:53 AM,35.1,21.0,57,30.29,10.0,Calm,Calm,-,N/A,,Clear,0,2013-01-22 18:53:00
11:53 AM,44.1,24.1,45,30.24,10.0,NNE,6.9,-,N/A,,Clear,30,2013-01-22 19:53:00
12:53 PM,45.0,24.1,44,30.21,10.0,NNE,6.9,-,N/A,,Clear,30,2013-01-22 20:53:00
1:53 PM,48.0,25.0,41,30.18,10.0,Calm,Calm,-,N/A,,Clear,0,2013-01-22 21:53:00
2:53 PM,45.0,27.0,49,30.19,10.0,NNE,5.8,-,N/A,,Clear,20,2013-01-22 22:53:00
3:53 PM,41.0,28.0,60,30.21,10.0,North,3.5,-,N/A,,Clear,10,2013-01-22 23:53:00
4:53 PM,37.9,28.0,68,30.23,9.0,Calm,Calm,-,N/A,,Clear,0,2013-01-23 00:53:00
5:53 PM,34.0,25.0,70,30.25,10.0,Calm,Calm,-,N/A,,Clear,0,2013-01-23 01:53:00
6:53 PM,30.9,24.1,76,30.27,10.0,SSW,4.6,-,N/A,,Clear,200,2013-01-23 02:53:00
7:53 PM,27.0,21.0,78,30.29,10.0,Calm,Calm,-,N/A,,Clear,0,2013-01-23 03:53:00
8:53 PM,27.0,21.0,78,30.28,10.0,Calm,Calm,-,N/A,,Clear,0,2013-01-23 04:53:00
9:53 PM,27.0,19.9,75,30.22,10.0,Calm,Calm,-,N/A,,Clear,0,2013-01-23 05:53:00
10:53 PM,27.0,19.0,72,30.20,10.0,Calm,Calm,-,N/A,,Clear,0,2013-01-23 06:53:00
11:53 PM,27.0,19.9,75,30.16,10.0,Calm,Calm,-,N/A,,Clear,0,2013-01-23 07:53:00